TITAN 3C TRANSTAGE DEB, 1716

Orbit data source: Space-Track

TITAN 3C TRANSTAGE DEB, 1716 is space debris in LEO originally from a launch on Fri, 15 Oct 1965 UTC launched from the Air Force Eastern Test Range (AFETR). Debris objects in space refer to the collection of defunct objects orbiting the Earth. Examples of debris include non-operational satellites, rocket bodies, and fragments generated from explosions, collisions, or faulty payload assembly.

Loading next visibility...
Identifier
1716, 1965-082BX
Orbit
LEO
Country
Flag of USUS
Related business
Manufacturer
Unknown
Mission
Spacecraft
Bus & Motor
Unknown
Mass
Unknown
Launch date (UTC)
1965-10-15 (61 years ago)
Launch vehicle
Unknown
Launch site
Air Force Eastern Test Range (AFETR)
Object type
Payload
Rocket body
Debris
Shape & HBR
Unknown shape, 0.9 m
Radar Cross Section
Large (>1 m²)

Expand to show TLE details & history
Last TLE update: 6 days ago

TLE from 6 days ago
0 TITAN 3C TRANSTAGE DEB
1 01716U 65082BX  26153.98280519  .00000615  00000-0  12375-3 0  9998
2 01716  32.1912  31.4017 0038155 192.0005 167.9732 14.57574653206426
Epoch: 2026-06-02T23:35Z
TLE epoch observation values (Epoch: 2026-06-02T23:35:14.368Z)
Latitude
-0.00002°
Longitude
146.14384°
Altitude
726.09 km
Speed
7.481 km/s
True Right ascension
02h 05m 36s
True Declination
0° 00' 00"
Sunlit
Object was in daylight at epoch
Visualization orbit readout
Latitude
Unknown
Longitude
Unknown
Altitude
Unknown
Speed
Unknown
Apparent Right ascension
Unknown
Apparent Declination
Unknown
Sunlit
N/A
Visualization observer readout
Local Sidereal Time
03:36:58
Azimuth
Unknown
Elevation
Unknown
Doppler factor
Unknown
Orbital elements
Apogee altitude
731.619 km
Perigee altitude
677.57 km
Semi-major axis
7,082.732 km
Eccentricity
0.00382
Inclination
32.1912°
RAAN
31.4017°
Arg. of periapsis
192.0005°
True anomaly
168.06388°
Mean anomaly
167.9732°
Eccentric anomaly
168.01858°
Mean motion
3.64118 °/min
Orbital period
98.87 mins
BSTAR
0.00012375

Documentation

Showing up to 5 results
|